Weather History for Tampa, FL

Change the Weather History Date:

Saturday, November 26, 2011

  Actual Average Record
Temperature  
Mean Temperature 72 °F 67 °F  
Max Temperature 81 °F 76 °F 85 °F (1946)
Min Temperature 63 °F 58 °F 31 °F (1950)
Degree Days  
Heating Degree Days 0 2  
Month to date heating degree days 9 32  
Since 1 July heating degree days 10 36  
Cooling Degree Days 7 4  
Month to date cooling degree days 168 149  
Year to date cooling degree days 3858 3515  
Growing Degree Days 22 (Base 50)    
Moisture  
Dew Point 58 °F    
Average Humidity 63    
Maximum Humidity 84    
Minimum Humidity 42    
Precipitation  
Precipitation 0.00 in 0.05 in 2.42 in (1918)
Month to date precipitation 0.80 1.29  
Year to date precipitation 52.59 43.57  
Sea Level Pressure  
Sea Level Pressure 30.17 in    
Wind  
Wind Speed 6 mph (East)    
Max Wind Speed 14 mph    
Max Gust Speed 24 mph    
Visibility 10 miles    
Events      
T = Trace of Precipitation, MM = Missing Value Source: NWS Daily Summary

Daily Weather History Graph

Daily Weather History Graph

Search for Another Location

Airport:

Trip Planner

Search our weather history database for the weather conditions in past years. The results will help you decide how hot, cold, wet, or windy it might be!

Date:

Astronomy

Nov. 26, 2011 Rise Set
Actual Time 7:00 AM EST 5:34 PM EST
Civil Twilight 6:34 AM EST 5:59 PM EST
Nautical Twilight 6:06 AM EST 6:28 PM EST
Astronomical Twilight 5:37 AM EST 6:56 PM EST
Moon 8:25 AM EST (11/26) 7:08 PM EST (11/26)
Length of Visible Light 11h 24m
Length of Day
10h 34m
Waxing Crescent, 3% of the Moon is Illuminated
Nov 26
Waxing Crescent
Dec 2
First Quarter
Dec 10
Full
Dec 17
Last Quarter
Dec 24
New

Hourly Weather History & Observations

Time (EST) Temp. Heat Index Dew Point Humidity Pressure Visibility Wind Dir Wind Speed Gust Speed Precip Events Conditions
12:53 AM 64.4 °F - 55.4 °F 73% 30.20 in 10.0 mi NE 3.5 mph - N/A   Clear
1:53 AM 64.0 °F - 55.9 °F 75% 30.19 in 10.0 mi ENE 4.6 mph - N/A   Partly Cloudy
2:53 AM 64.0 °F - 57.0 °F 78% 30.18 in 10.0 mi ENE 5.8 mph - N/A   Mostly Cloudy
3:53 AM 64.0 °F - 57.0 °F 78% 30.18 in 10.0 mi Calm Calm - N/A   Partly Cloudy
4:53 AM 64.4 °F - 57.2 °F 77% 30.18 in 10.0 mi Calm Calm - N/A   Scattered Clouds
5:53 AM 63.0 °F - 57.9 °F 84% 30.19 in 10.0 mi Calm Calm - N/A   Scattered Clouds
6:53 AM 64.0 °F - 57.9 °F 80% 30.20 in 10.0 mi Calm Calm - N/A   Mostly Cloudy
7:53 AM 64.9 °F - 59.0 °F 81% 30.21 in 10.0 mi ENE 4.6 mph - N/A   Scattered Clouds
8:53 AM 70.0 °F - 60.1 °F 71% 30.22 in 10.0 mi ENE 4.6 mph - N/A   Partly Cloudy
9:53 AM 73.9 °F - 59.0 °F 59% 30.23 in 10.0 mi East 8.1 mph - N/A   Partly Cloudy
10:53 AM 78.1 °F - 57.0 °F 48% 30.22 in 10.0 mi ESE 9.2 mph 18.4 mph N/A   Scattered Clouds
11:53 AM 80.1 °F 80.2 °F 55.9 °F 43% 30.19 in 10.0 mi East 11.5 mph 18.4 mph N/A   Mostly Cloudy
12:53 PM 79.0 °F - 57.9 °F 48% 30.17 in 10.0 mi Variable 5.8 mph 17.3 mph N/A   Mostly Cloudy
1:53 PM 81.0 °F 81.3 °F 59.0 °F 47% 30.14 in 10.0 mi East 8.1 mph - N/A   Mostly Cloudy
2:53 PM 81.0 °F 81.3 °F 59.0 °F 47% 30.12 in 10.0 mi East 10.4 mph - N/A   Scattered Clouds
3:53 PM 80.1 °F 80.7 °F 59.0 °F 48% 30.12 in 10.0 mi East 10.4 mph 20.7 mph N/A   Scattered Clouds
4:53 PM 78.1 °F - 60.1 °F 54% 30.13 in 10.0 mi East 8.1 mph - N/A   Scattered Clouds
5:53 PM 75.9 °F - 60.1 °F 58% 30.13 in 10.0 mi East 10.4 mph 17.3 mph N/A   Partly Cloudy
6:53 PM 73.4 °F - 60.8 °F 65% 30.14 in 10.0 mi East 6.9 mph - N/A   Partly Cloudy
7:53 PM 73.0 °F - 59.0 °F 61% 30.14 in 10.0 mi East 6.9 mph - N/A   Partly Cloudy
8:53 PM 71.6 °F - 57.2 °F 60% 30.15 in 10.0 mi East 6.9 mph - N/A   Partly Cloudy
9:53 PM 70.0 °F - 55.0 °F 59% 30.15 in 10.0 mi ESE 4.6 mph - N/A   Clear
10:53 PM 69.8 °F - 55.4 °F 60% 30.15 in 10.0 mi Variable 5.8 mph - N/A   Clear
11:53 PM 68.0 °F - 55.0 °F 63% 30.14 in 10.0 mi ESE 5.8 mph - N/A   Clear